Location: Calberlah
(52.4230°N, 10.6240°E)
Time: 04:56:12
(UTC+00:00)

COBE Rocket - Pass Details

Date: 19 May 2025
Orbit: 676 x 772 km, 97.1° (Epoch: 14 June)

Event Time Altitude Azimuth Distance (km) Brightness Sun altitude
Rises 21:49:57 0° 12° (NNE) 3,226 8.2 -15.3°
Reaches altitude 10° 21:52:15 10° 13° (NNE) 2,307 7.4 -15.4°
Maximum altitude 21:57:23 90° 106° (ESE) 777 4.0 -15.7°
Enters shadow 22:00:58 20° 194° (SSW) 1,708 5.3 -15.9°
